星链-37390(STARLINK-37390)

导读

STARLINK-37390(NORAD编号68782)是美国SpaceX公司星链(Starlink)星座中的一颗低轨互联网通信卫星。星链项目旨在构建覆盖全球的天基互联网系统,提供高速低延迟的网络接入服务,该卫星作为星链组网的组成部分之一,运行在近地轨道,参与星座的组网运营,为全球范围内用户提供宽带互联网通信服务,支撑星链系统的全球覆盖能力,助力SpaceX实现低轨星座的大规模部署目标。

Basic Information
目录编号:
68782
目录名称:
STARLINK-37390
国际标识:
2026-086S
轨道中心:
EARTH
卫星名称:
星链-37390
卫星全名:
星链-37390(STARLINK-37390)
卫星状态:
在轨 (已飞行138 天)
发射日期:
2026-04-19 UTC
国别 :
美国 (US)
星等 :
--
Orbit Information
数据来源 国际轨道数据 AOE轨道数据
星历时间 2026-09-03T21:50:28+0800
15小时前
查看轨道信息
2026-09-02T23:00:00+0800
1天前
查看轨道信息
半长轴 6843.674km 6843.718km
偏心率 0.0001353 0.0001602
轨道倾角 97.284° 97.286°
近地点辐角 96.508° 87.089°
升交点赤经 282.278° 281.341°
平近点角 263.631° 62.594°
近地点 464.611km 464.484km
远地点 466.463km 466.678km
周期 93.906分钟 93.907分钟
每日圈数 15.334472 15.334324
Detailed Information
固有亮度:
5
最大亮度:
2.5
卫星平台:
Starlink V1.0
覆盖范围:
全球
运营商:
太空探索技术公司
运营商所在国:
美国
制造商(研发单位):
太空探索技术公司
制造商所在国:
美国
使用方式:
暂无
Satellite Introduction
Starlink 计划是 SpaceX 推出的全球卫星互联网项目,通过发射低轨道卫星,为全球尤其是偏远地区提供高速、低延迟的互联网服务。自 2019 年起,Starlink 已部署数千颗卫星,旨在缩小全球数字鸿沟,推动互联网普及。该项目还为军事、航空等行业提供通信支持,带来广泛经济效益。
2D Orbit Map
3D Orbit Map
Orbit Altitude Analysis Chart
Orbit Inclination Analysis Chart
Orbit Comprehensive Analysis Chart
View Comprehensive Chart
Conjunction Data List
Event ID Objects TCA Miss Dist (km) Collision Risk Probability Collision Risk Index (CRI) Action
CDM_260905-075006-754606-878221
2026-09-05T
07:50:41+0000
0.194 km
中距离
8.127924E-4 高风险 0.93
CDM_260905-092406-754606-878221
2026-09-05T
09:24:38+0000
0.586 km
远距离
1.383901E-4 高风险 0.78
CDM_260905-061606-754606-878221
2026-09-05T
06:16:43+0000
0.959 km
远距离
3.105073E-5 中风险 0.65
CDM_260905-141305-316306-878221
2026-09-05T
14:13:13+0000
1.077 km
极远距离
2.049259E-5 中风险 0.61
CDM_260905-105806-754606-878221
2026-09-05T
10:58:36+0000
1.374 km
极远距离
8.926175E-6 低风险 0.54
CDM_260905-044206-754606-878221
2026-09-05T
04:42:45+0000
1.715 km
极远距离
4.360568E-6 低风险 0.48
CDM_260905-030806-754606-878221
2026-09-05T
03:08:47+0000
2.459 km
极远距离
1.794976E-6 低风险 0.4
CDM_260904-200805-318006-878221
2026-09-04T
20:08:46+0000
2.518 km
极远距离
1.559674E-6 低风险 0.39
CDM_260905-005504-848506-878221
2026-09-05T
00:55:52+0000
2.954 km
极远距离
1.34744E-6 低风险 0.38
CDM_260905-022706-167006-878221
2026-09-05T
02:27:03+0000
2.854 km
极远距离
1.029399E-6 低风险 0.35